IRIDIUM 38 [-]

Last updated on Wed Jun 28 2023 00:03:02 GMT+0000 (Coordinated Universal Time)

1 25043U 97069E 23178.44778524 .00000554 00000+0 18119-3 0 9993 2 25043 86.3984 176.0455 0002031 35.3576 324.7756 14.36793004342681
UTC large
Height (km)
Speed (km/s)
/
Latitude / Longitude
Inclination (degrees)
Orbital Period (minutes)
Azimuth
Elevation
Range (km)
Doppler Factor

Next 0 passes for location: London (51.5072 / 0.1276)

Sorry there are no passes over London.